Norden-Norddeich Airport

EDWS · Lower Saxony, Germany

METAR history EDWS · Norden-Norddeich Airport

Below you see METARs of the last few days. Select a year to browse through older METARs, from the year 2007 onwards.

November 29, 2022

Time Code Weather Temp. Visibility Ceiling Wind METAR/SPECI
12:20
L
6 °C 500 m 100 ft 100° 100° 6 kt SPECI ETNT 291120Z 10006KT 0500 -DZ FG BKN001 06/06 Q1017 BLACKRED
12:20
L
6 °C 500 m 100 ft 100° 100° 6 kt METAR ETNT 291120Z 10006KT 0500 -DZ FG BKN001 06/06 Q1017 BLACKRED
12:10
L
6 °C 600 m 100 ft 100° 100° 5 kt METAR ETNT 291110Z 10005KT 0600 -DZ FG BKN001 06/06 Q1017 BLACKRED
11:20
L
6 °C 900 m 100 ft 100° 100° 5 kt METAR ETNT 291020Z 10005KT 0900 -DZ FG BKN001 06/06 Q1016 BLACKRED
10:20
L
7 °C 600 m 100 ft 090° 090° 3 kt METAR ETNT 290920Z 09003KT 0600 FG BKN001 07/07 Q1016 BLACKRED
09:20
L
7 °C 800 m 100 ft Var Var 3 kt METAR ETNT 290820Z VRB03KT 0800 FG BKN001 07/07 Q1016 BLACKRED
08:20
L
7 °C 600 m 100 ft Var Var 3 kt METAR ETNT 290720Z VRB03KT 0600 -RADZ FG BKN001 07/07 Q1015 BLACKRED
07:20
L
7 °C 1 km 100 ft 170° 170° 4 kt METAR ETNT 290620Z 17004KT 1000 -RADZ BR BKN001 07/07 Q1015 BLACKRED
06:20
L
7 °C 1 km 100 ft 170° 170° 4 kt METAR ETNT 290520Z 17004KT 1000 -RADZ BR BKN001 07/07 Q1014 BLACKRED
05:20
U
6 °C 0 m - 170° 170° 3 kt METAR ETNT 290420Z AUTO 17003KT //// // ////// 06/06 Q1014 ///
04:20
U
6 °C 0 m - Var Var 3 kt METAR ETNT 290320Z AUTO VRB03KT //// // ////// 06/06 Q1014 ///
03:20
U
6 °C 0 m - Var Var 3 kt METAR ETNT 290220Z AUTO VRB03KT //// // ////// 06/06 Q1013 ///
02:20
U
6 °C 0 m - Var Var 2 kt METAR ETNT 290120Z AUTO VRB02KT //// // ////// 06/06 Q1013 ///
01:20
U
6 °C 0 m - 160° 160° 3 kt METAR ETNT 290020Z AUTO 16003KT //// // ////// 06/06 Q1013 ///
00:20
U
6 °C 0 m - 170° 170° 4 kt METAR ETNT 282320Z AUTO 17004KT //// // ////// 06/06 Q1013 ///

November 28, 2022

Time Code Weather Temp. Visibility Ceiling Wind METAR/SPECI
23:20
U
6 °C 0 m - 150° 150° 4 kt METAR ETNT 282220Z AUTO 15004KT //// // ////// 06/06 Q1013 ///
22:20
L
6 °C 3.5 km 200 ft 170° 170° 3 kt METAR ETNT 282120Z 17003KT 3500 -DZRA BR BKN002 06/06 Q1013 BLACKAMB
21:20
L
6 °C 3.5 km 200 ft 150° 150° 4 kt METAR ETNT 282020Z 15004KT 3500 -DZRA BR BKN002 06/06 Q1012 BLACKAMB
20:20
L
6 °C 3.8 km 200 ft 150° 150° 4 kt METAR ETNT 281920Z 15004KT 3800 -DZRA BR BKN002 06/06 Q1012 BLACKAMB
19:20
L
6 °C 4 km 300 ft 150° 150° 4 kt METAR ETNT 281820Z 15004KT 4000 -DZRA BR BKN003 06/06 Q1011 BLACKYLO
18:20
L
6 °C 4 km 300 ft 160° 160° 5 kt METAR ETNT 281720Z 16005KT 4000 -DZRA BR BKN003 06/06 Q1011 BLACKYLO
17:20
L
6 °C 4 km 300 ft 160° 160° 6 kt METAR ETNT 281620Z 16006KT 4000 -DZRA BR BKN003 06/06 Q1011 BLACKYLO
16:20
I
6 °C 4 km 500 ft 160° 160° 6 kt METAR ETNT 281520Z 16006KT 4000 -DZRA BKN005 06/06 Q1010 BLACKYLO
15:20
I
6 °C 4 km 500 ft 160° 160° 7 kt METAR ETNT 281420Z 16007KT 4000 -DZRA BKN005 06/06 Q1010 BLACKYLO
14:20
I
7 °C 4 km 500 ft 170° 170° 6 kt METAR ETNT 281320Z 17006KT 4000 -DZRA BKN005 07/06 Q1010 BLACKYLO
13:20
I
7 °C 4 km 500 ft 170° 170° 6 kt METAR ETNT 281220Z 17006KT 4000 -DZRA BKN005 07/06 Q1010 BLACKYLO
12:20
I
7 °C 4 km 500 ft 170° 170° 7 kt METAR ETNT 281120Z 17007KT 4000 -DZRA BKN005 07/06 Q1010 BLACKYLO
11:20
I
7 °C 4 km 500 ft 170° 170° 7 kt METAR ETNT 281020Z 17007KT 4000 -DZRA BKN005 07/06 Q1010 BLACKYLO
10:20
I
6 °C 4 km 500 ft 160° 160° 6 kt METAR ETNT 280920Z 16006KT 4000 -DZRA BKN005 06/06 Q1009 BLACKYLO
09:20
I
6 °C 6 km 600 ft 170° 170° 8 kt METAR ETNT 280820Z 17008KT 6000 -DZRA BKN006 06/06 Q1009 BLACKYLO
08:20
I
6 °C 6 km 600 ft 160° 160° 7 kt METAR ETNT 280720Z 16007KT 6000 -DZRA BKN006 06/05 Q1009 BLACKYLO
07:41
I
6 °C 6 km 700 ft 160° 160° 7 kt METAR ETNT 280641Z 16007KT 6000 -DZRA BKN007 BKN013 06/05 Q1009 BLACKGRN
07:20
M
6 °C 10 km+ 1,100 ft 160° 160° 6 kt METAR ETNT 280620Z 16006KT 9999 BKN011 06/05 Q1009 BLACKGRN
07:05
M
6 °C 10 km+ 1,300 ft 160° 160° 6 kt METAR ETNT 280605Z 16006KT 9999 BKN013 06/05 Q1009 BLACKGRN
06:20
M
6 °C 10 km+ 1,700 ft 150° 150° 7 kt METAR ETNT 280520Z 15007KT 9999 BKN017 06/05 Q1008 BLACKWHT
05:20
U
6 °C 0 m - 150° 150° 8 kt METAR ETNT 280420Z AUTO 15008KT //// // ////// 06/05 Q1009 ///
04:20
U
6 °C 0 m - 150° 150° 8 kt METAR ETNT 280320Z AUTO 15008KT //// // ////// 06/05 Q1009 ///
03:20
U
6 °C 0 m - 160° 160° 8 kt METAR ETNT 280220Z AUTO 16008KT //// // ////// 06/04 Q1010 ///
02:20
U
6 °C 0 m - 140° 140° 7 kt METAR ETNT 280120Z AUTO 14007KT //// // ////// 06/05 Q1010 ///
01:20
U
6 °C 0 m - 150° 150° 6 kt METAR ETNT 280020Z AUTO 15006KT //// // ////// 06/05 Q1011 ///
00:20
U
6 °C 0 m - 150° 150° 7 kt METAR ETNT 272320Z AUTO 15007KT //// // ////// 06/05 Q1012 ///

November 27, 2022

Time Code Weather Temp. Visibility Ceiling Wind METAR/SPECI
23:20
U
6 °C 0 m - 140° 140° 7 kt METAR ETNT 272220Z AUTO 14007KT //// // ////// 06/05 Q1012 ///
22:20
U
6 °C 0 m - 150° 150° 7 kt METAR ETNT 272120Z AUTO 15007KT //// // ////// 06/05 Q1013 ///
21:20
U
6 °C 0 m - 150° 150° 7 kt METAR ETNT 272020Z AUTO 15007KT //// // ////// 06/05 Q1014 ///
20:20
U
6 °C 0 m - 150° 150° 6 kt METAR ETNT 271920Z AUTO 15006KT //// // ////// 06/05 Q1015 ///
19:20
U
6 °C 0 m - 150° 150° 7 kt METAR ETNT 271820Z AUTO 15007KT //// // ////// 06/05 Q1015 ///
18:20
U
6 °C 0 m - 150° 150° 7 kt METAR ETNT 271720Z AUTO 15007KT //// // ////// 06/04 Q1016 ///
17:20
U
6 °C 0 m - 160° 160° 6 kt METAR ETNT 271620Z AUTO 16006KT //// // ////// 06/04 Q1016 ///
16:20
U
6 °C 0 m - 150° 150° 7 kt METAR ETNT 271520Z AUTO 15007KT //// // ////// 06/04 Q1017 ///
15:20
U
6 °C 0 m - 150° 150° 8 kt METAR ETNT 271420Z AUTO 15008KT //// // ////// 06/04 Q1017 ///
14:20
U
5 °C 0 m - 170° 170° 6 kt METAR ETNT 271320Z AUTO 17006KT //// // ////// 05/04 Q1019 ///
13:20
U
6 °C 0 m - 180° 180° 6 kt METAR ETNT 271220Z AUTO 18006KT //// // ////// 06/03 Q1019 ///
12:20
U
6 °C 0 m - 180° 180° 7 kt METAR ETNT 271120Z AUTO 18007KT //// // ////// 06/03 Q1020 ///
11:20
U
5 °C 0 m - 170° 170° 6 kt METAR ETNT 271020Z AUTO 17006KT //// // ////// 05/03 Q1021 ///

We and third parties follow your internet behavior on our website with cookies. If you continue, we assume you agree with our cookie policy.